sat.trackr.live / text

‹ back to catalog

STARLINK-33672

NORAD 63326 · 2025-057V

PAYLOAD ACTIVE UNKNOWN

§ Identity

Operator
Country
US
Launch date
2025-03-18
Launch site
AFETR
Launch vehicle
Mass (kg)
RCS (m²)

Purposes: comms

External: N2YO · Heavens-Above · Gunter

§ Orbital elements

Epoch: 2026-05-24T19:43:38.211456Z

Period
94.27 min
Inclination
42.9987°
Eccentricity
0.0002138
Mean motion
15.27598407 rev/d
Perigee alt
481.5 km
Apogee alt
484.5 km
Semi-major
6,861.1 km
B*
6.1645e-4
RAAN
320.6403°
Arg perigee
277.0234°
Mean anomaly
83.0375°
Rev number
6,742

§ Raw data

STARLINK-336721 63326U 25057V   26144.82197004  .00016750  00000+0  61645-3 0  99902 63326  42.9987 320.6403 0002138 277.0234  83.0375 15.27598407 67421

JSON: /api/v1/satellites/63326 · /tle

For live sub-satellite position, see the globe view (requires WebGL).

§ Visibility from observer

Set your observer location to see the next 7 days of passes ≥ 10°. The values pass through the URL so the page stays shareable.

No JS? Fill the form by hand. The geolocation button needs JavaScript.